Pocatello, ID

5:19 AM MST on December 11, 2017 (GMT -0700)
Pocatello Regional

Weather History for KPIH - September, 2013

Change the Weather History Date:

Sunday, September 29, 2013

  Actual Average Record
Temperature  
Mean Temperature 62 °F 53 °F  
Max Temperature 67 °F 69 °F 89 °F (1989)
Min Temperature 57 °F 38 °F 19 °F (1985)
Degree Days  
Heating Degree Days 3 12  
Month to date heating degree days 130 191  
Since 1 July heating degree days 130 237  
Cooling Degree Days 0 0  
Month to date cooling degree days 61 20  
Year to date cooling degree days 688 390  
Growing Degree Days 12 (Base 50)    
Moisture  
Dew Point 32 °F    
Average Humidity 33    
Maximum Humidity 42    
Minimum Humidity 23    
Precipitation  
Precipitation T in 0.03 in 0.32 in (1977)
Month to date precipitation 0.76 0.81  
Year to date precipitation 4.79 8.88  
Snow  
Snow 0.00 in - - ()
Month to date snowfall 0.0  
Since 1 July snowfall 0.0  
Since 1 September snowfall 0.0  
Snow Depth 0.00 in    
Sea Level Pressure  
Sea Level Pressure 29.84 in    
Wind  
Wind Speed 19 mph (SSW)    
Max Wind Speed 38 mph    
Max Gust Speed 47 mph    
Visibility 10 miles    
Events Rain    
T = Trace of Precipitation, MM = Missing Value Source: NWS Daily Summary

Daily Weather History Graph

Daily Weather History Graph

Search for Another Location

Airport or City:

Trip Planner

Search our weather history database for the weather conditions in past years. The results will help you decide how hot, cold, wet, or windy it might be!

Date:

Astronomy

Sep. 29, 2013 Rise Set
Actual Time 7:25 AM MDT 7:14 PM MDT
Civil Twilight 6:57 AM MDT 7:42 PM MDT
Nautical Twilight 6:24 AM MDT 8:15 PM MDT
Astronomical Twilight 5:51 AM MDT 8:48 PM MDT
Moon 2:04 AM MDT (9/29) 4:18 PM MDT (9/29)
Length of Visible Light 12h 45m
Length of Day
11h 48m
Waning Crescent, 26% of the Moon is Illuminated
Sep 29
Waning Crescent
Oct 4
New
Oct 11
First Quarter
Oct 18
Full
Oct 26
Last Quarter

Hourly Weather History & Observations

Time (MDT) Temp. Dew Point Humidity Pressure Visibility Wind Dir Wind Speed Gust Speed Precip Events Conditions
12:53 AM 57.0 °F 26.1 °F 30% 29.93 in 10.0 mi South 23.0 mph 32.2 mph N/A   Clear
1:53 AM 59.0 °F 26.1 °F 28% 29.89 in 10.0 mi South 23.0 mph 32.2 mph N/A   Clear
2:53 AM 57.9 °F 26.1 °F 30% 29.86 in 10.0 mi South 23.0 mph 32.2 mph N/A   Clear
3:53 AM 57.9 °F 25.0 °F 28% 29.84 in 10.0 mi South 25.3 mph 34.5 mph N/A   Partly Cloudy
4:53 AM 60.1 °F 24.1 °F 25% 29.82 in 10.0 mi South 26.5 mph 34.5 mph N/A   Scattered Clouds
5:53 AM 60.1 °F 26.1 °F 27% 29.83 in 10.0 mi South 26.5 mph 34.5 mph N/A   Overcast
6:53 AM 61.0 °F 26.1 °F 26% 29.86 in 10.0 mi SSW 21.9 mph 31.1 mph N/A   Partly Cloudy
7:53 AM 57.9 °F 30.0 °F 35% 29.90 in 10.0 mi SW 11.5 mph - N/A   Mostly Cloudy
8:53 AM 59.0 °F 35.1 °F 41% 29.90 in 10.0 mi SW 21.9 mph 29.9 mph 0.00 in Rain Light Rain
9:53 AM 59.0 °F 37.9 °F 46% 29.91 in 10.0 mi South 23.0 mph 31.1 mph 0.00 in   Overcast
10:53 AM 61.0 °F 37.0 °F 41% 29.88 in 10.0 mi SSW 25.3 mph 35.7 mph 0.00 in   Overcast
11:53 AM 61.0 °F 36.0 °F 39% 29.88 in 10.0 mi SSW 24.2 mph 32.2 mph 0.00 in Rain Light Rain
12:53 PM 61.0 °F 35.1 °F 38% 29.86 in 10.0 mi South 18.4 mph 31.1 mph 0.00 in   Overcast
1:53 PM 63.0 °F 32.0 °F 31% 29.83 in 10.0 mi SSW 27.6 mph 44.9 mph 0.00 in   Overcast
2:53 PM 63.0 °F 33.1 °F 33% 29.86 in 10.0 mi WSW 24.2 mph 32.2 mph 0.00 in Rain Light Rain
3:53 PM 64.0 °F 36.0 °F 35% 29.85 in 10.0 mi West 18.4 mph - 0.00 in   Mostly Cloudy
4:53 PM 64.0 °F 34.0 °F 33% 29.81 in 10.0 mi SW 12.7 mph - N/A   Mostly Cloudy
5:53 PM 62.1 °F 36.0 °F 38% 29.80 in 10.0 mi Calm Calm - N/A   Overcast
6:53 PM 62.1 °F 27.0 °F 26% 29.75 in 10.0 mi SSE 11.5 mph - N/A   Overcast
7:53 PM 63.0 °F 25.0 °F 24% 29.79 in 10.0 mi SSW 13.8 mph 21.9 mph N/A   Overcast
8:53 PM 61.0 °F 33.1 °F 35% 29.84 in 10.0 mi West 12.7 mph - 0.00 in   Overcast
9:53 PM 61.0 °F 36.0 °F 39% 29.82 in 10.0 mi SSW 10.4 mph - 0.00 in   Overcast
10:53 PM 60.1 °F 36.0 °F 41% 29.81 in 10.0 mi South 8.1 mph - N/A   Overcast
11:53 PM 63.0 °F 35.1 °F 35% 29.77 in 9.0 mi South 16.1 mph - N/A   Overcast